Hutchinson, MN

8:01 PM CST on February 06, 2016 (GMT -0600)
Hutchinson Municipal-Butler

Weather History for KHCD - January, 2013

Change the Weather History Date:

Saturday, January 19, 2013

  Actual Average Record
Temperature  
Mean Temperature 20 °F -  
Max Temperature 38 °F 21 °F 48 °F (1981)
Min Temperature 1 °F 0 °F -34 °F (1970)
Degree Days  
Heating Degree Days 46    
Moisture  
Dew Point 18 °F    
Average Humidity 84    
Maximum Humidity 100    
Minimum Humidity 67    
Precipitation  
Precipitation 0.00 in - - ()
Sea Level Pressure  
Sea Level Pressure 29.89 in    
Wind  
Wind Speed 11 mph (West)    
Max Wind Speed 37 mph    
Max Gust Speed 48 mph    
Visibility 10 miles    
Events      
Averages and records for this station are not official NWS values.
T = Trace of Precipitation, MM = Missing Value Source: NWS Daily Summary

Daily Weather History Graph

Daily Weather History Graph

Search for Another Location

Airport or City:

Trip Planner

Search our weather history database for the weather conditions in past years. The results will help you decide how hot, cold, wet, or windy it might be!

Date:

Astronomy

Jan. 19, 2013 Rise Set
Actual Time 7:48 AM CST 5:08 PM CST
Civil Twilight 7:16 AM CST 5:40 PM CST
Nautical Twilight 6:40 AM CST 6:16 PM CST
Astronomical Twilight 6:05 AM CST 6:51 PM CST
Moon 11:37 AM CST (1/19) 1:20 AM CST (1/19)
Length of Visible Light 10h 23m
Length of Day
9h 19m
First Quarter, 57% of the Moon is Illuminated
Jan 19
First Quarter
Jan 26
Full
Feb 3
Last Quarter
Feb 10
New
Feb 17
First Quarter

Hourly Weather History & Observations

Time (CST) Temp. Windchill Dew Point Humidity Pressure Visibility Wind Dir Wind Speed Gust Speed Precip Events Conditions
12:08 AM 29.3 °F - 28.4 °F 96% 29.76 in 10.0 mi Calm Calm - N/A   Clear
12:29 AM 29.3 °F - 28.4 °F 96% 29.75 in 10.0 mi Calm Calm - N/A   Clear
12:49 AM 28.4 °F 24.6 °F 27.3 °F 96% 29.74 in 10.0 mi ESE 3.5 mph - N/A   Clear
1:07 AM 25.2 °F 19.5 °F 24.4 °F 97% 29.74 in 10.0 mi SE 4.6 mph - N/A   Clear
1:29 AM 26.6 °F - 26.4 °F 99% 29.74 in 10.0 mi Calm Calm - N/A   Clear
1:48 AM 26.6 °F 22.6 °F 26.4 °F 99% 29.73 in 10.0 mi East 3.5 mph - N/A   Scattered Clouds
2:08 AM 26.6 °F 22.6 °F 26.2 °F 99% 29.74 in 10.0 mi SSE 3.5 mph - N/A   Mostly Cloudy
2:29 AM 29.3 °F 25.6 °F 28.9 °F 99% 29.73 in 10.0 mi SE 3.5 mph - N/A   Overcast
2:48 AM 29.3 °F 25.6 °F 28.9 °F 99% 29.73 in 10.0 mi SSE 3.5 mph - N/A   Overcast
3:08 AM 29.3 °F - 28.9 °F 99% 29.72 in 10.0 mi Calm Calm - N/A   Mostly Cloudy
3:29 AM 29.3 °F 24.3 °F 29.1 °F 99% 29.70 in 10.0 mi ESE 4.6 mph - N/A   Scattered Clouds
3:48 AM 26.6 °F 22.6 °F 26.6 °F 100% 29.69 in 10.0 mi SE 3.5 mph - N/A   Clear
4:08 AM 26.6 °F - 26.6 °F 100% 29.69 in 10.0 mi Calm Calm - N/A   Clear
4:29 AM 24.6 °F - 24.6 °F 100% 29.69 in 10.0 mi Calm Calm - N/A   Scattered Clouds
4:49 AM 26.8 °F - 26.8 °F 100% 29.70 in 10.0 mi Calm Calm - N/A   Scattered Clouds
5:08 AM 29.3 °F 24.3 °F 29.1 °F 99% 29.69 in 10.0 mi South 4.6 mph - N/A   Clear
5:28 AM 29.3 °F 24.3 °F 28.9 °F 99% 29.70 in 10.0 mi WSW 4.6 mph - N/A   Clear
5:48 AM 28.2 °F 23.1 °F 27.9 °F 99% 29.69 in 10.0 mi SSW 4.6 mph - N/A   Clear
6:09 AM 25.0 °F 19.3 °F 24.6 °F 99% 29.69 in 10.0 mi WSW 4.6 mph - N/A   Clear
6:28 AM 29.3 °F 22.3 °F 29.1 °F 99% 29.68 in 10.0 mi WSW 6.9 mph - N/A   Scattered Clouds
6:48 AM 31.5 °F 24.2 °F 30.7 °F 97% 29.67 in 10.0 mi WSW 8.1 mph - N/A   Scattered Clouds
7:09 AM 31.8 °F 22.8 °F 30.2 °F 94% 29.69 in 10.0 mi West 11.5 mph - N/A   Scattered Clouds
7:29 AM 31.6 °F 23.7 °F 29.7 °F 92% 29.70 in 10.0 mi West 9.2 mph - N/A   Mostly Cloudy
7:48 AM 30.7 °F 22.0 °F 28.6 °F 92% 29.71 in 10.0 mi West 10.4 mph - N/A   Mostly Cloudy
8:08 AM 31.8 °F 22.8 °F 29.3 °F 90% 29.71 in 10.0 mi West 11.5 mph - N/A   Overcast
8:28 AM 32.2 °F 23.2 °F 29.8 °F 91% 29.72 in 10.0 mi West 11.5 mph - N/A   Overcast
8:48 AM 34.0 °F 24.6 °F 31.1 °F 89% 29.72 in 10.0 mi West 13.8 mph - N/A   Mostly Cloudy
9:09 AM 35.1 °F 25.2 °F 31.3 °F 86% 29.73 in 10.0 mi West 16.1 mph - N/A   Scattered Clouds
9:28 AM 36.5 °F 26.3 °F 32.0 °F 84% 29.75 in 10.0 mi West 18.4 mph 23.0 mph N/A   Scattered Clouds
9:48 AM 36.5 °F 26.7 °F 32.0 °F 84% 29.75 in 10.0 mi West 17.3 mph - N/A   Mostly Cloudy
10:09 AM 36.5 °F 27.8 °F 32.0 °F 84% 29.76 in 10.0 mi West 13.8 mph 20.7 mph N/A   Mostly Cloudy
10:29 AM 36.3 °F 27.1 °F 32.0 °F 84% - 10.0 mi West 15.0 mph - N/A   Scattered Clouds
10:48 AM 36.5 °F 27.4 °F 32.0 °F 84% 29.77 in 10.0 mi West 15.0 mph 20.7 mph N/A   Scattered Clouds
11:08 AM 36.5 °F 28.2 °F 32.0 °F 84% 29.77 in 10.0 mi West 12.7 mph 18.4 mph N/A   Clear
11:29 AM 36.9 °F 27.5 °F 32.0 °F 83% 29.76 in 10.0 mi West 16.1 mph - N/A   Clear
11:35 AM 38.1 °F 28.1 °F 32.7 °F 81% 29.78 in 10.0 mi West 19.6 mph 23.0 mph N/A   Clear
12:08 PM 37.0 °F 27.0 °F 32.4 °F 83% 29.76 in 10.0 mi West 18.4 mph 24.2 mph N/A   Scattered Clouds
12:13 PM 37.4 °F 27.5 °F 32.9 °F 84% 29.77 in 10.0 mi West 18.4 mph - N/A   Scattered Clouds
12:48 PM 37.8 °F 27.4 °F 32.9 °F 83% 29.77 in 10.0 mi West 20.7 mph 28.8 mph N/A   Overcast
1:08 PM 36.7 °F 24.2 °F 32.4 °F 84% 29.77 in 10.0 mi West 28.8 mph 35.7 mph N/A   Overcast
1:29 PM 35.1 °F 22.0 °F 30.9 °F 85% 29.79 in 10.0 mi WNW 28.8 mph 42.6 mph N/A   Overcast
1:48 PM 31.3 °F 15.8 °F 26.8 °F 83% 29.82 in 10.0 mi WNW 34.5 mph 40.3 mph N/A   Overcast
2:08 PM 29.3 °F 12.6 °F 23.7 °F 80% 29.83 in 10.0 mi WNW 36.8 mph 47.2 mph N/A   Overcast
2:28 PM 26.6 °F 9.8 °F 20.3 °F 77% 29.86 in 10.0 mi WNW 32.2 mph 43.7 mph N/A   Mostly Cloudy
2:48 PM 22.1 °F 2.7 °F 14.7 °F 73% 29.88 in 10.0 mi WNW 36.8 mph 42.6 mph N/A   Scattered Clouds
2:55 PM 21.6 °F 2.1 °F 13.5 °F 71% 29.90 in 10.0 mi WNW 35.7 mph 48.3 mph N/A   Scattered Clouds
3:30 PM 19.4 °F -0.6 °F 10.4 °F 68% 29.93 in 10.0 mi WNW 34.5 mph 44.9 mph N/A   Scattered Clouds
3:45 PM 19.4 °F -0.3 °F 10.4 °F 68% 29.94 in 10.0 mi WNW 33.4 mph 43.7 mph N/A   Scattered Clouds
4:05 PM 17.6 °F -3.3 °F 8.6 °F 68% 29.96 in 10.0 mi WNW 35.7 mph 43.7 mph N/A   Scattered Clouds
4:30 PM 15.8 °F -5.0 °F 8.6 °F 73% 29.98 in 10.0 mi WNW 32.2 mph 43.7 mph N/A   Clear
4:50 PM 14.0 °F -7.4 °F 6.8 °F 73% 30.01 in 10.0 mi WNW 32.2 mph 44.9 mph N/A   Scattered Clouds
5:10 PM 14.0 °F -5.1 °F 6.8 °F 73% 30.04 in 10.0 mi WNW 24.2 mph 39.1 mph N/A   Mostly Cloudy
5:25 PM 12.2 °F -8.6 °F 3.2 °F 67% 30.04 in 10.0 mi WNW 27.6 mph 43.7 mph N/A   Mostly Cloudy
5:45 PM 10.4 °F -11.7 °F 1.4 °F 67% 30.06 in 10.0 mi WNW 29.9 mph 35.7 mph N/A   Mostly Cloudy
6:05 PM 8.6 °F -12.7 °F 1.4 °F 73% 30.08 in 10.0 mi WNW 25.3 mph 38.0 mph N/A   Scattered Clouds
6:30 PM 8.6 °F -11.9 °F 1.4 °F 73% 30.11 in 10.0 mi WNW 23.0 mph 33.4 mph N/A   Scattered Clouds
6:45 PM 8.6 °F -11.0 °F 3.2 °F 79% 30.12 in 10.0 mi WNW 20.7 mph 31.1 mph N/A   Scattered Clouds
7:10 PM 6.8 °F -15.1 °F -0.4 °F 72% 30.13 in 10.0 mi WNW 25.3 mph 33.4 mph N/A   Clear
7:25 PM 6.8 °F -13.8 °F -0.4 °F 72% 30.14 in 10.0 mi WNW 21.9 mph 32.2 mph N/A   Clear
7:50 PM 6.8 °F -13.8 °F -0.4 °F 72% 30.15 in 10.0 mi WNW 21.9 mph 31.1 mph N/A   Clear
8:05 PM 5.0 °F -14.7 °F -2.2 °F 72% 30.16 in 10.0 mi WNW 18.4 mph 34.5 mph N/A   Clear
8:30 PM 3.2 °F -19.5 °F -2.2 °F 78% 30.17 in 10.0 mi WNW 24.2 mph 31.1 mph N/A   Clear
8:50 PM 3.2 °F -19.0 °F -4.0 °F 72% 30.18 in 10.0 mi WNW 23.0 mph 32.2 mph N/A   Clear
9:10 PM 3.2 °F -15.3 °F -4.0 °F 72% 30.20 in 10.0 mi WNW 15.0 mph 28.8 mph N/A   Clear
9:26 PM 2.8 °F -15.7 °F -2.9 °F 77% 30.22 in 10.0 mi WNW 15.0 mph 24.2 mph N/A   Clear
9:29 PM 2.8 °F -16.4 °F -2.6 °F 78% 30.22 in 10.0 mi WNW 16.1 mph 24.2 mph N/A   Clear
9:49 PM 2.8 °F -15.0 °F -3.1 °F 76% 30.22 in 10.0 mi West 13.8 mph 21.9 mph N/A   Clear
10:08 PM 2.3 °F -15.0 °F -3.3 °F 77% 30.23 in 10.0 mi WNW 12.7 mph 18.4 mph N/A   Clear
10:28 PM 1.9 °F -15.5 °F -3.5 °F 78% 30.21 in 10.0 mi WNW 12.7 mph - N/A   Clear
10:48 PM 1.8 °F -15.7 °F -4.0 °F 77% 30.21 in 10.0 mi WNW 12.7 mph - N/A   Clear
11:08 PM 1.4 °F -18.2 °F -4.2 °F 77% 30.24 in 10.0 mi WNW 16.1 mph 21.9 mph N/A   Clear
11:28 PM 1.4 °F -16.9 °F -4.0 °F 78% 30.25 in 10.0 mi WNW 13.8 mph - N/A   Clear
11:49 PM 1.4 °F -18.2 °F -3.8 °F 79% 30.25 in 10.0 mi WNW 16.1 mph 24.2 mph N/A   Clear